Вернуться в каталог

OPS 9845

DMSP 5D-2 F6

АктивенПогодаSSO
NORAD 13736·PAYLOAD·🇺🇸 United States

Запущен Dec 21, 1982 с Vandenberg Space Force Base

Loading…

Ближайшие Пролёты (ближайшие 24 часа)

TLE

СвежийSource: Space-Track

Эпоха: Sep 14, 2026, 12:52 UTC

1 13736U 82118A   26257.53639585  .00000097  00000-0  53898-4 0  9999
2 13736  98.5938  84.0886 0008593  66.1558 294.0525 14.30547584277783

Отслеживайте OPS 9845 в реальном времени с AllMySat

Download on the App Store